Overview Statistics Trail Chart Weather Telemetry Raw packets
 

This is the latest recevied weather packets stored in our database for station/object CE1JFB-10. If no packets are shown the sender has not sent any weather packets the latest 10 day(s).

<< 1 2 3 4 >>
Time Temp. Humidity Pressure Rain* Wind** Luminosity Snow
1778213050 22.78° C 64% 1013.3 hPa - - - -
1778209450 22.78° C 61% 1012.9 hPa - - - -
1778205850 22.22° C 64% 1013.1 hPa - - - -
1778202250 22.78° C 64% 1012.9 hPa - - - -
1778198649 23.89° C 58% 1012 hPa - - - -
1778195049 23.33° C 60% 1011.5 hPa - - - -
1778191449 23.33° C 62% 1011.5 hPa - - - -
1778187849 23.33° C 60% 1011.4 hPa - - - -
1778160468 21.67° C 63% 1015.4 hPa - - - -
1778155133 20.56° C 67% 1014.5 hPa - - - -
1778153998 20° C 67% 1014.3 hPa - - - -
1778153365 20° C 68% 1014.2 hPa - - - -
1778151221 20° C 67% 1013.6 hPa - - - -
1778149910 20° C 67% 1013.4 hPa - - - -
1778147807 20° C 66% 1012.9 hPa - - - -
1778110264 22.78° C 68% 1013.7 hPa - - - -
1778106664 22.78° C 67% 1013 hPa - - - -
1778103080 23.33° C 65% 1012.5 hPa - - - -
1778099464 23.89° C 61% 1012.3 hPa - - - -
1778095864 23.89° C 58% 1012.3 hPa - - - -
1778092264 23.89° C 58% 1012.5 hPa - - - -
1778088664 24.44° C 54% 1013.1 hPa - - - -
1778085063 24.44° C 55% 1013.6 hPa - - - -
1778081463 23.89° C 56% 1014.7 hPa - - - -
1778077863 25° C 56% 1015 hPa - - - -

* Rain since midnight (hover to see other rain measurements)
** Current wind speed in m/s (hover to see current wind gust speed)